Lid_Strength_Index
-1 -1 -1 -1 -1 -1 -1 -1 -1 -1 -1 -1 -1 -1 -0 -0 -0 3 8 6 4 -2 1 5 6 7 8 9 8 9 13 15 15 14 13 10 11 9 9 10 9 9 9 8 6
-1 -1 -1 -1 -0 -1 -1 -1 -1 -1 -1 -1 -1 -0 -0 -0 5 7 3 -0 -3 -2 6 7 8 8 10 10 9 11 15 13 12 11 12 10 11 11 11 11 10 9 7 7 6
-1 -1 -1 -1 -0 -1 -0 -1 -1 -1 -1 -1 -0 -0 -1 1 7 7 -1 -3 -2 -1 5 6 7 8 11 11 11 12 14 12 11 10 10 11 11 10 11 11 10 10 8 7 7
-0 0 -0 -1 -0 -0 -0 0 -1 -1 -1 -1 -0 -0 -0 4 13 8 -2 -2 -2 3 5 7 8 10 12 12 11 12 10 11 10 10 10 11 10 11 11 10 9 9 7 7 7
0 1 0 0 0 0 0 0 0 -1 -1 -1 -0 -0 4 9 9 2 -1 -1 2 4 6 8 10 11 13 12 12 12 11 10 9 9 10 10 11 11 11 9 9 8 7 7 7
1 1 1 1 1 1 1 1 0 -1 -1 -0 -0 0 8 12 7 1 1 3 4 5 7 8 9 9 11 12 12 12 12 11 10 10 11 11 12 11 10 10 10 9 8 8 7
2 2 2 2 1 1 1 -0 -0 -1 -1 -0 -0 3 8 10 7 2 3 5 5 5 8 8 8 10 11 12 11 11 13 12 11 12 11 11 12 12 10 10 10 10 9 8 7
3 3 2 2 2 1 1 0 0 -0 -0 -0 -0 5 11 6 6 5 6 7 6 6 7 7 7 9 11 11 11 13 15 16 13 12 11 12 14 11 10 11 10 10 10 9 8
3 3 3 3 2 2 1 1 1 0 0 -0 6 9 11 4 7 7 7 8 7 8 8 6 8 11 11 14 16 16 18 17 14 12 12 13 14 11 11 11 11 11 11 10 10
4 4 4 3 3 2 1 1 0 1 2 2 5 10 9 9 8 7 8 7 9 9 9 10 11 14 14 15 18 18 17 17 16 13 13 14 14 12 10 11 11 11 10 11 10
4 4 4 4 4 3 3 5 8 9 7 10 10 10 8 7 7 8 7 8 8 10 14 12 15 16 14 14 15 16 17 16 15 12 13 13 13 12 11 11 11 11 11 10 10
5 5 5 4 4 3 5 9 9 8 11 8 8 9 8 8 10 9 7 10 11 13 12 13 16 13 13 13 13 14 16 16 14 13 13 14 14 13 12 12 13 13 12 12 11
5 5 5 4 4 5 7 8 6 6 11 10 7 9 9 8 10 10 8 10 12 13 13 15 13 11 12 14 14 15 16 16 15 13 14 15 16 15 13 14 14 14 13 13 14
5 5 5 4 5 6 7 5 5 7 16 14 11 9 9 9 11 8 8 10 12 13 14 14 12 12 13 13 14 16 13 13 14 16 18 15 19 16 14 16 16 15 15 15 16
5 5 4 5 7 7 6 4 5 10 22 12 11 7 9 10 10 10 9 10 13 13 13 14 13 14 14 13 12 14 12 13 14 16 18 17 18 17 17 18 18 16 17 17 17
4 3 3 5 6 6 4 5 7 17 23 12 11 11 12 11 10 10 10 10 11 13 13 13 12 12 12 12 12 12 14 14 15 17 20 17 17 18 21 20 19 18 19 19 18
3 2 4 4 5 3 3 7 16 20 13 13 12 11 11 12 12 12 13 14 15 17 17 15 14 12 12 14 13 14 16 19 20 20 20 18 17 22 20 19 20 20 20 20 20
3 3 2 2 3 3 6 12 20 14 13 10 11 12 13 11 12 11 13 14 12 14 16 17 17 13 12 12 14 15 15 18 21 20 20 17 19 22 20 19 20 20 20 21 21
4 6 6 8 5 5 10 17 16 13 11 11 12 14 14 12 13 13 15 15 13 13 16 17 16 12 12 12 11 15 16 13 15 16 19 18 23 20 20 21 21 22 21 22 21
8 8 9 9 5 7 12 13 13 12 11 11 15 13 16 14 14 14 15 13 12 12 12 14 16 12 12 11 11 12 12 16 16 21 22 19 20 22 23 23 22 23 23 22 21
8 12 8 9 5 9 13 12 10 10 10 11 13 13 12 14 13 15 14 12 11 13 12 13 14 15 12 13 13 13 14 14 14 15 20 21 20 22 24 24 24 23 22 22 22
8 13 6 8 11 13 15 13 10 12 13 11 11 13 14 14 16 15 14 13 13 13 16 14 16 19 16 12 13 14 15 14 17 18 17 17 23 22 23 23 23 23 23 23 22
10 13 9 9 16 17 15 13 13 14 15 15 14 14 14 16 19 15 14 13 14 15 18 16 19 24 21 16 13 15 17 16 15 15 19 19 23 22 22 23 23 23 23 23 22
13 16 13 12 14 16 16 15 15 13 15 15 15 16 18 19 17 18 18 15 15 15 12 13 17 22 26 21 19 20 21 20 18 21 22 20 25 26 25 25 24 24 23 23 23
13 15 14 17 16 16 16 16 17 17 15 15 16 17 18 20 19 20 18 18 16 14 16 16 24 20 18 18 18 25 23 22 25 28 27 30 28 27 26 25 24 24 24 25 25
15 15 15 16 16 17 16 17 17 17 17 17 17 17 18 19 19 20 19 19 19 17 18 17 24 19 23 18 18 26 24 23 23 25 26 28 29 24 23 23 24 25 25 25 24
13 12 15 16 17 18 18 18 17 16 15 15 17 18 18 17 16 16 16 16 16 18 18 18 19 25 28 19 20 24 26 23 23 24 24 25 26 23 24 23 22 22 24 25 24